Weather History for Rhinelander, WI

Change the Weather History Date:

Thursday, July 18, 2013

  Actual Average Record
Temperature  
Mean Temperature 80 °F 67 °F  
Max Temperature 90 °F 79 °F 96 °F (1932)
Min Temperature 69 °F 55 °F 38 °F (1924)
Degree Days  
Heating Degree Days 0 2  
Month to date heating degree days 10 36  
Since 1 June heating degree days 184 170  
Since 1 July heating degree days 10 36  
Cooling Degree Days 15 4  
Month to date cooling degree days 122 62  
Year to date cooling degree days 176 127  
Since 1 June cooling degree days 162 115  
Growing Degree Days 30 (Base 50)    
Moisture  
Dew Point 67 °F    
Average Humidity 69    
Maximum Humidity 90    
Minimum Humidity 47    
Precipitation  
Precipitation 0.02 in 0.13 in 2.02 in (1978)
Month to date precipitation 1.61 2.42  
Year to date precipitation 20.24 15.99  
Snow  
Snow 0.00 in - 0.00 in ()
Month to date snowfall 0.0  
Since 1 June snowfall 0.0  
Since 1 July snowfall 0.0  
Snow Depth 0.00 in    
Sea Level Pressure  
Sea Level Pressure 29.97 in    
Wind  
Wind Speed 10 mph (SW)    
Max Wind Speed 24 mph    
Max Gust Speed 37 mph    
Visibility 10 miles    
Events      
T = Trace of Precipitation, MM = Missing Value Source: NWS Daily Summary

Daily Weather History Graph

Daily Weather History Graph

Search for Another Location

Airport:

Trip Planner

Search our weather history database for the weather conditions in past years. The results will help you decide how hot, cold, wet, or windy it might be!

Date:

Astronomy

Jul. 18, 2013 Rise Set
Actual Time 5:26 AM CDT 8:41 PM CDT
Civil Twilight 4:50 AM CDT 9:17 PM CDT
Nautical Twilight 4:03 AM CDT 10:04 PM CDT
Astronomical Twilight 3:04 AM CDT 11:02 PM CDT
Moon 4:36 PM CDT (7/18) 1:19 AM CDT (7/18)
Length of Visible Light 16h 27m
Length of Day
15h 14m
Waxing Gibbous, 77% of the Moon is Illuminated
Jul 18
Waxing Gibbous
Jul 22
Full
Jul 29
Last Quarter
Aug 6
New
Aug 14
First Quarter

Hourly Weather History & Observations

Time (CDT) Temp. Heat Index Dew Point Humidity Pressure Visibility Wind Dir Wind Speed Gust Speed Precip Events Conditions
12:53 AM 71.1 °F - 66.9 °F 87% 30.14 in 10.0 mi Calm Calm - N/A   Clear
1:53 AM 71.1 °F - 66.9 °F 87% 30.13 in 10.0 mi Calm Calm - N/A   Clear
2:53 AM 69.1 °F - 66.9 °F 93% 30.12 in 9.0 mi Calm Calm - N/A   Clear
3:53 AM 71.1 °F - 66.9 °F 87% 30.12 in 10.0 mi SSW 5.8 mph - N/A   Mostly Cloudy
4:53 AM 71.1 °F - 66.0 °F 84% 30.09 in 10.0 mi SW 4.6 mph - N/A   Clear
5:53 AM 71.1 °F - 66.9 °F 87% 30.08 in 10.0 mi SW 6.9 mph - N/A   Clear
6:53 AM 71.1 °F - 66.9 °F 87% 30.07 in 10.0 mi SSW 5.8 mph - N/A   Clear
7:53 AM 75.9 °F - 68.0 °F 76% 30.06 in 10.0 mi SW 6.9 mph - N/A   Clear
8:53 AM 81.0 °F 84.1 °F 69.1 °F 67% 30.05 in 10.0 mi WSW 10.4 mph - N/A   Clear
9:53 AM 84.0 °F 87.8 °F 69.1 °F 61% 30.04 in 10.0 mi WSW 9.2 mph 17.3 mph N/A   Clear
10:53 AM 87.1 °F 90.6 °F 68.0 °F 53% 30.02 in 10.0 mi SW 11.5 mph 19.6 mph N/A   Clear
11:53 AM 89.1 °F 92.1 °F 66.9 °F 48% 29.99 in 10.0 mi WSW 15.0 mph 24.2 mph N/A   Partly Cloudy
12:53 PM 88.0 °F 90.7 °F 66.9 °F 49% 29.98 in 10.0 mi WSW 10.4 mph 20.7 mph N/A   Mostly Cloudy
1:53 PM 90.0 °F 92.8 °F 66.9 °F 46% 29.94 in 10.0 mi WSW 11.5 mph 19.6 mph N/A   Scattered Clouds
2:53 PM 89.1 °F 92.1 °F 66.9 °F 48% 29.91 in 10.0 mi SW 15.0 mph 24.2 mph N/A   Scattered Clouds
3:53 PM 89.1 °F 92.9 °F 68.0 °F 50% 29.89 in 10.0 mi SW 16.1 mph 27.6 mph N/A   Mostly Cloudy
4:53 PM 84.9 °F 90.7 °F 72.0 °F 65% 29.88 in 10.0 mi SW 12.7 mph - 0.02 in   Partly Cloudy
5:53 PM 86.0 °F 89.4 °F 68.0 °F 55% 29.85 in 10.0 mi SW 11.5 mph - N/A   Partly Cloudy
6:53 PM 86.0 °F 88.8 °F 66.9 °F 53% 29.81 in 10.0 mi SW 15.0 mph 23.0 mph N/A   Clear
7:53 PM 82.9 °F 85.4 °F 66.9 °F 58% 29.80 in 10.0 mi SW 11.5 mph - N/A   Clear
8:53 PM 82.0 °F 84.5 °F 66.9 °F 60% 29.81 in 10.0 mi SW 11.5 mph - N/A   Clear
9:53 PM 81.0 °F 83.0 °F 66.0 °F 60% 29.81 in 10.0 mi SW 8.1 mph - N/A   Scattered Clouds
10:53 PM 79.0 °F - 66.9 °F 66% 29.80 in 10.0 mi SW 9.2 mph - N/A   Mostly Cloudy
11:53 PM 78.1 °F - 66.9 °F 68% 29.77 in 10.0 mi SW 10.4 mph 19.6 mph N/A   Scattered Clouds